EW5461 Weather Reports


Display with metric or nautical units.
time (UTC)temp
F
wind
direction
speed
MPH
gust
MPH
rain 1hr
in
rain 24hr
in
rain mn
in
humidity
%
barometer
mb
20210227091624 52 180 0.0 2.0 0.00 0.07 0.00 91 1011.5
20210227090316 53 180 0.0 2.0 0.00 0.07 0.00 90 1011.8
20210227084741 53 180 0.0 3.0 0.00 0.12 0.00 90 1011.8
20210227083142 53 186 1.0 3.0 0.00 0.12 0.00 90 1012.0
20210227081713 53 147 1.0 4.0 0.00 0.12 0.00 90 1011.8
20210227080133 53 144 1.0 6.0 0.00 0.12 0.00 90 1012.0
20210227074626 53 145 1.0 4.0 0.00 0.14 0.00 90 1012.1
20210227073129 53 177 0.0 3.0 0.00 0.14 0.00 90 1012.7
20210227071724 53 210 1.0 7.0 0.00 0.14 0.00 90 1012.4
20210227070052 53 178 1.0 4.0 0.00 0.14 0.00 89 1012.1
20210227064718 53 101 0.0 3.0 0.00 0.39 0.00 89 1012.7
20210227063148 53 195 2.0 4.0 0.00 0.39 0.00 89 1012.7
20210227061551 53 147 1.0 7.0 0.00 0.39 0.00 89 1012.2
20210227060105 53 115 3.0 7.0 0.00 0.39 0.00 89 1012.2
20210227054640 53 165 1.0 4.0 0.00 0.80 0.39 89 1012.6
20210227053047 53 138 0.0 7.0 0.00 0.80 0.39 89 1012.7
20210227051636 53 98 0.0 3.0 0.00 0.80 0.39 89 1013.0
20210227050200 53 111 1.0 4.0 0.00 0.80 0.39 89 1013.2
20210227044618 53 101 0.0 4.0 0.00 1.25 0.39 88 1013.2
20210227043126 53 119 0.0 1.0 0.00 1.25 0.39 88 1013.5
20210227041643 53 114 1.0 4.0 0.00 1.25 0.39 88 1013.2
20210227040052 53 150 0.0 4.0 0.00 1.25 0.39 87 1013.0
20210227034643 53 148 0.0 2.0 0.00 1.29 0.39 88 1012.9
20210227033106 53 135 0.0 2.0 0.00 1.29 0.39 88 1012.7
20210227031642 53 139 0.0 2.0 0.00 1.29 0.39 87 1012.7
20210227030129 53 139 0.0 0.0 0.00 1.29 0.39 87 1012.7
20210227024612 53 139 0.0 2.0 0.00 1.42 0.39 86 1012.4
20210227023037 53 139 0.0 1.0 0.00 1.42 0.39 86 1012.1
20210227021558 54 139 0.0 2.0 0.00 1.42 0.39 85 1012.1
20210227020051 54 139 1.0 3.0 0.00 1.42 0.39 85 1011.9
20210227014614 54 175 0.0 2.0 0.00 1.44 0.39 84 1012.0
20210227013037 54 175 0.0 3.0 0.00 1.44 0.39 83 1011.8
20210227011554 55 175 1.0 3.0 0.00 1.44 0.39 82 1011.6
20210227010042 55 183 0.0 3.0 0.00 1.44 0.39 81 1011.5
20210227004606 55 184 1.0 3.0 0.00 1.44 0.39 80 1011.4
20210227003049 56 184 0.0 2.0 0.00 1.44 0.39 78 1011.3
20210227001604 57 188 1.0 5.0 0.00 1.44 0.39 77 1011.2
20210227000131 57 169 2.0 6.0 0.00 1.44 0.39 76 1010.9
20210226234555 58 175 2.0 6.0 0.00 1.46 0.39 75 1010.9
20210226233150 58 188 4.0 8.0 0.00 1.46 0.39 75 1010.7
20210226231544 58 184 5.0 9.0 0.00 1.46 0.39 76 1010.7
20210226230052 58 197 3.0 9.0 0.00 1.46 0.39 76 1010.8
20210226224535 57 223 1.0 8.0 0.00 1.46 0.39 77 1011.3
20210226223050 57 169 5.0 9.0 0.00 1.46 0.39 76 1011.1
20210226221537 57 242 2.0 8.0 0.00 1.46 0.39 77 1011.0
20210226220039 58 202 3.0 6.0 0.00 1.46 0.39 76 1011.0
20210226214544 57 227 5.0 8.0 0.00 1.46 0.39 76 1011.0
20210226213034 57 171 5.0 10.0 0.00 1.46 0.39 77 1011.3
20210226211532 57 207 5.0 9.0 0.00 1.46 0.39 77 1011.4
20210226210022 57 196 3.0 7.0 0.00 1.46 0.39 77 1011.4
20210226204522 56 219 3.0 10.0 0.00 1.46 0.39 78 1011.4
20210226203037 56 167 3.0 10.0 0.00 1.46 0.39 78 1011.8
20210226201512 56 211 4.0 7.0 0.00 1.46 0.39 79 1011.9
20210226200139 55 228 3.0 7.0 0.00 1.46 0.39 81 1012.0
20210226194640 55 244 3.0 7.0 0.00 1.46 0.39 81 1012.2
20210226193316 55 259 2.0 6.0 0.00 1.46 0.39 81 1012.2
20210226191629 54 196 3.0 9.0 0.00 1.46 0.39 83 1012.5
20210226190106 53 168 3.0 6.0 0.00 1.46 0.39 84 1013.1
20210226184616 52 294 2.0 5.0 0.00 1.46 0.39 86 1013.6
20210226183131 51 267 2.0 4.0 0.00 1.46 0.39 87 1013.9
20210226181557 51 232 2.0 6.0 0.00 1.46 0.39 88 1014.4
20210226180105 50 240 1.0 4.0 0.00 1.46 0.39 90 1014.7
20210226174550 50 232 2.0 5.0 0.00 1.46 0.39 91 1014.8
20210226173135 49 314 4.0 6.0 0.00 1.46 0.39 93 1015.0
20210226171611 48 315 4.0 7.0 0.00 1.46 0.39 94 1015.4
20210226170115 48 270 3.0 7.0 0.00 1.46 0.39 95 1015.3
20210226164601 47 279 3.0 7.0 0.00 1.46 0.39 95 1015.6
20210226163051 47 248 2.0 6.0 0.00 1.46 0.39 96 1015.6
20210226161530 47 241 2.0 4.0 0.00 1.46 0.39 96 1015.6
20210226160029 46 304 2.0 5.0 0.00 1.46 0.39 96 1015.6
20210226154528 46 288 2.0 6.0 0.00 1.46 0.39 96 1015.7
20210226153030 46 328 3.0 5.0 0.00 1.46 0.39 96 1015.8
20210226151528 45 276 1.0 4.0 0.00 1.46 0.39 96 1015.8
20210226150026 45 284 2.0 4.0 0.00 1.46 0.39 96 1015.8
20210226144529 45 280 2.0 4.0 0.00 1.46 0.39 96 1016.0
20210226143029 45 319 1.0 2.0 0.00 1.46 0.39 96 1015.8
20210226141511 45 305 1.0 3.0 0.00 1.46 0.39 96 1015.4
20210226140021 45 301 1.0 3.0 0.00 1.46 0.39 96 1015.4
20210226134529 45 17 1.0 2.0 0.00 1.46 0.39 96 1015.1
20210226133024 45 17 0.0 2.0 0.00 1.46 0.39 96 1014.9
20210226131519 45 17 0.0 3.0 0.00 1.46 0.39 96 1014.8
20210226130036 45 360 1.0 3.0 0.00 1.46 0.39 96 1014.7
20210226124533 45 360 1.0 3.0 0.00 1.46 0.39 96 1015.0
20210226123007 45 360 2.0 3.0 0.00 1.46 0.39 96 1015.1
20210226121705 45 360 0.0 3.0 0.00 1.46 0.39 96 1015.1
20210226120146 45 355 1.0 4.0 0.01 1.46 0.39 96 1015.0
20210226114921 45 9 1.0 4.0 0.01 1.46 0.39 96 1015.2
20210226113226 45 9 0.0 2.0 0.02 1.46 0.39 96 1015.0
20210226111809 45 22 1.0 3.0 0.03 1.46 0.39 96 1015.3
20210226110113 45 22 0.0 4.0 0.03 1.45 0.38 96 1015.2
20210226104713 45 22 0.0 2.0 0.04 1.45 0.38 95 1015.2
20210226103155 45 22 1.0 5.0 0.03 1.44 0.37 95 1015.5
20210226101746 45 9 0.0 2.0 0.02 1.43 0.36 95 1015.2
20210226100140 45 24 0.0 4.0 0.03 1.42 0.35 95 1015.5
20210226094643 45 24 1.0 4.0 0.07 1.41 0.34 95 1015.7
20210226093145 45 36 0.0 5.0 0.07 1.41 0.34 95 1015.6